TIME,DELAY(SENSOR),PRES,OXYGEN,RAWTEMP,T(OPTODE),TCPHASE,FLUOR,BETA(BETA700),BETA(BETA412),BETA(BETA440),CDOM,C(CSC),ED(ED412.40),ED(ED444.00),ED(ED489.70),ED(ED554.30),LU(LU411.80),LU(LU443.40),LU(LU489.60),LU(LU554.10),COMP,TILTX,TILTY,CHECK
1366775789,5807,837.5200195312500000,41.7530899047851560,654.0659790039062000,4.8231348991394040,54.6631507873535160,54,99,89,80,80,14811,2147753737,2147424338,2148011181,2147874843,2147636662,2147055195,2148254025,2147198189,701,4,13,33545
1366779385,5808,887.6300048828125000,45.3472404479980500,661.7648925781250000,4.5698509216308590,54.2302093505859400,53,99,84,80,79,14813,2147749988,2147427026,2148010870,2147877083,2147638089,2147058368,2148259492,2147194998,1117,4,13,61103
1366782985,5809,893.5100097656250000,46.2588386535644500,663.5256958007812000,4.5118308067321780,54.1197090148925800,52,99,88,77,80,14813,2147749888,2147427730,2148008018,2147875072,2147640758,2147054985,2148254107,2147197147,3541,4,13,10455
1366786585,5807,926.4000244140625000,46.1475181579589840,666.2412719726562000,4.4222831726074220,54.1683311462402340,53,100,86,79,81,14812,2147754925,2147425664,2148007972,2147872786,2147641517,2147052050,2148260370,2147194651,483,4,13,18870
1366790185,5811,928.8200073242188000,46.3104209899902340,664.8474731445312000,4.4682540893554690,54.1250610351562500,53,102,88,79,81,14812,2147751232,2147425325,2148008384,2147875291,2147640045,2147052681,2148253778,2147193581,3509,4,13,49282
1366793785,5810,930.6799926757812000,46.1692504882812500,665.4428710937500000,4.4486198425292970,54.1507797241210940,52,99,86,78,81,14813,2147755373,2147424082,2148011419,2147878281,2147639570,2147060781,2148262729,2147198308,111,4,13,11876
1366797385,5807,956.2700195312500000,46.5163383483886700,668.1459960937500000,4.3594231605529785,54.1352005004882800,52,102,86,78,80,14812,2147753426,2147425618,2148012260,2147876772,2147637888,2147053339,2148262582,2147195456,3434,4,13,62296
1366800985,5809,955.7399902343750000,46.8917999267578100,669.3978881835938000,4.3180828094482420,54.0982398986816400,53,98,91,78,80,14814,2147755337,2147424877,2148010715,2147874304,2147639981,2147057984,2148260333,2147194770,398,4,13,25029
1366804585,5809,962.1900024414062000,46.6194992065429700,668.7188720703125000,4.3405089378356930,54.1297111511230500,53,98,88,79,80,14811,2147754267,2147425526,2148009892,2147873508,2147638765,2147051876,2148257069,2147193298,3423,4,13,64651
1366808185,5809,979.4600219726562000,48.0242881774902340,671.4047241210938000,4.2517828941345215,53.9656295776367200,52,98,82,78,80,14811,2147752978,2147429677,2148011044,2147875894,2147641472,2147057353,2148261787,2147193856,3232,4,13,28286
1366811785,5807,982.5100097656250000,48.7340316772460940,672.2025146484375000,4.2254137992858890,53.8753509521484400,53,100,83,79,80,14810,2147752054,2147426706,2148010733,2147877696,2147640932,2147057170,2148263268,2147193426,3520,4,13,9585
1366815385,5810,986.9099731445312000,48.5424194335937500,671.9882202148438000,4.2324981689453125,53.8952598571777340,53,98,86,80,80,14813,2147756763,2147429083,2148007296,2147875657,2147643666,2147054400,2148259364,2147192265,3598,4,13,55678
1366818985,5808,987.1699829101562000,49.2865409851074200,672.8389282226562000,4.2043700218200680,53.8024406433105500,53,106,86,78,80,14810,2147756900,2147424393,2148012260,2147875867,2147641197,2147052516,2148261622,2147196937,554,4,13,48331
1366822585,5806,989.2899780273438000,48.6944503784179700,672.4561157226562000,4.2170310020446780,53.8838005065918000,53,98,83,78,81,14813,2147757577,2147425883,2148008082,2147875739,2147642486,2147052818,2148259227,2147196004,3435,4,13,36990
1366826185,5807,998.3499755859375000,48.7490501403808600,671.7114868164062000,4.2416439056396480,53.8672904968261700,53,97,86,78,80,14802,2147752667,2147423414,2148010532,2147874395,2147642669,2147052726,2148256429,2147193993,3250,4,13,13194
1366829785,5808,994.3400268554688000,48.7499504089355500,671.6625976562500000,4.2432589530944820,53.8616218566894500,51,97,89,78,81,14801,2147756498,2147427099,2148011163,2147875090,2147641161,2147053540,2148255149,2147193673,3364,4,13,53964
1366833385,5805,992.9799804687500000,48.6797294616699200,671.7125854492188000,4.2416081428527830,53.8727684020996100,53,100,88,80,80,14803,2147757238,2147423579,2148012105,2147873179,2147641161,2147059520,2148255341,2147195355,3533,4,13,28282
1366836985,5810,999.9099731445312000,47.7606811523437500,670.8267211914062000,4.2708840370178220,53.9950904846191400,52,97,85,79,81,14769,2147755346,2147422994,2148010998,2147875785,2147643410,2147054482,2148261385,2147195949,280,4,13,30193
1366840585,5810,993.1300048828125000,47.3166809082031250,670.9774780273438000,4.2659001350402830,54.0596504211425800,53,98,83,79,81,14772,2147755556,2147426102,2148012160,2147874843,2147640173,2147057846,2148257691,2147196077,3487,4,13,38566
1366844185,5808,996.5599975585938000,48.2740707397460940,671.8148803710938000,4.2382240295410160,53.9351615905761700,53,97,84,78,81,14769,2147756864,2147425682,2148012306,2147877193,2147641801,2147055341,2148263332,2147194304,3279,4,13,54909
1366847785,5807,993.2399902343750000,48.6782188415527340,672.3236083984375000,4.2214088439941410,53.8817787170410160,52,99,88,78,80,14766,2147756205,2147423680,2148010285,2147874989,2147639606,2147053622,2148262985,2147195108,3437,4,13,33565
1366851385,5809,990.8200073242188000,48.4961700439453100,673.0913085937500000,4.1960258483886720,53.9148902893066400,52,96,86,79,81,14763,2147755053,2147424283,2148012873,2147876598,2147641289,2147052763,2148258779,2147200256,3496,4,13,15895
1366854985,5809,993.1900024414062000,48.5275382995605500,673.5028076171875000,4.1824169158935550,53.9166603088378900,52,98,87,78,80,14768,2147760539,2147424923,2148010258,2147877083,2147640493,2147057801,2148258322,2147193600,279,4,13,25595
1366858585,5813,993.6699829101562000,48.8489418029785160,672.5645751953125000,4.2134399414062500,53.8637313842773440,52,100,86,78,79,14767,2147755309,2147423963,2148013787,2147874221,2147638683,2147051309,2148260443,2147193718,38,4,13,2115
1366862185,5812,990.6900024414062000,48.5967407226562500,673.1359252929688000,4.1945528984069820,53.9058418273925800,52,97,84,79,81,14767,2147756470,2147424740,2148008484,2147876370,2147643273,2147058660,2148260032,2147195483,3497,4,13,9369
1366865785,5808,996.5399780273438000,48.3607215881347660,673.3361816406250000,4.1879267692565920,53.9433212280273440,52,100,87,79,79,14766,2147754578,2147422912,2148014409,2147876050,2147642660,2147052224,2148261138,2147196452,26,4,13,23635
1366869385,5807,995.2800292968750000,48.9357185363769500,673.5385131835938000,4.1812357902526855,53.8616485595703100,53,97,85,78,79,14766,2147757476,2147424274,2148011803,2147875254,2147643172,2147051885,2148261275,2147195593,3140,4,13,62499
1366872985,5811,994.8200073242188000,48.6819305419921900,673.7890014648438000,4.1729512214660645,53.9018592834472660,52,97,86,78,81,14766,2147754038,2147425718,2148008612,2147873545,2147643894,2147060653,2148262500,2147193033,352,4,13,21300
1366876585,5806,992.8699951171875000,48.8797302246093750,673.7512207031250000,4.1742000579833980,53.8691101074218750,52,101,87,77,81,14765,2147755776,2147421449,2148011254,2147874971,2147641344,2147055277,2148262006,2147196169,122,4,13,17763
1366880185,5808,999.0999755859375000,48.0409011840820300,672.8029174804688000,4.2055630683898930,53.9767303466796900,52,100,87,79,80,14765,2147756589,2147424667,2148006573,2147875108,2147640192,2147053092,2148263113,2147194468,249,4,13,33474
1366883785,5809,991.0100097656250000,47.3557701110839840,671.5358276367188000,4.2474498748779300,54.0551300048828100,53,99,83,79,80,14761,2147756553,2147425133,2148008996,2147877632,2147642541,2147054107,2148263844,2147194176,3092,4,13,28511
1366887385,5810,996.8800048828125000,48.7212600708007800,672.3253784179688000,4.2213501930236820,53.8784103393554700,52,99,81,79,81,14744,2147754770,2147425334,2148009389,2147877293,2147639753,2147049444,2148259520,2147200265,488,4,13,29019
1366890985,5809,991.2899780273438000,48.8127899169921900,673.7504272460938000,4.1742272377014160,53.8789901733398440,52,96,84,78,80,14743,2147760137,2147425536,2148009965,2147874020,2147640155,2147050285,2148262016,2147197248,3434,4,13,4682
1366894585,5805,990.2999877929688000,49.7654190063476560,674.9921875000000000,4.1331439018249510,53.7681083679199200,52,99,82,78,80,14743,2147754130,2147422912,2148010605,2147873673,2147642459,2147050157,2148266742,2147192969,143,4,13,16102
1366898185,5806,991.7800292968750000,48.7064590454101560,674.3173217773438000,4.1554760932922360,53.9016799926757800,53,100,86,78,80,14746,2147756297,2147426294,2148010404,2147875748,2147640905,2147051026,2148262811,2147195766,601,4,13,62116
1366901785,5807,989.7600097656250000,49.4813804626464840,674.6779174804688000,4.1435427665710450,53.7971000671386700,53,98,86,82,80,14741,2147757010,2147423213,2148013056,2147875712,2147638125,2147050267,2148262363,2147195940,148,4,13,40553
1366905385,5809,988.8900146484375000,48.7627601623535160,674.6782226562500000,4.1435341835021970,53.8978118896484400,52,98,87,79,80,14743,2147756662,2147424886,2148009014,2147875858,2147640448,2147053696,2148264109,2147193490,3170,4,13,29894
1366908985,5809,990.5200195312500000,48.9459304809570300,675.2083129882812000,4.1259942054748535,53.8792991638183600,53,98,88,80,81,14744,2147757577,2147425746,2148010486,2147876589,2147641755,2147055890,2148263259,2147192393,222,4,13,46644
1366912585,5808,991.1599731445312000,48.8993606567382800,674.8870849609375000,4.1366209983825680,53.8810310363769500,53,98,86,77,80,14744,2147754285,2147422253,2148012726,2147879405,2147644672,2147052790,2148259401,2147197440,3547,4,13,49759
1366916185,5809,997.3300170898438000,49.4806594848632800,673.8696289062500000,4.1702837944030760,53.7899589538574200,52,99,88,78,80,14741,2147754596,2147425069,2148011620,2147876224,2147644489,2147055561,2148262701,2147191963,191,4,13,38806
1366919785,5807,1000.1900024414062000,49.1386489868164060,673.4760131835938000,4.1833062171936035,53.8348884582519500,53,98,88,78,80,14740,2147753828,2147427940,2148009289,2147876406,2147640512,2147051556,2148262610,2147196187,343,4,13,46496
1366920655,5808,1002.7800292968750000,49.1709899902343750,673.0435791015625000,4.1976032257080080,53.8226203918457000,52,99,86,80,81,14800,2147754432,2147426642,2148011346,2147875712,2147646116,2147056301,2148257472,2147196516,3341,4,13,33871
